Location: Boiro
(42.6475°N, 8.8834°W)
Time: 02:49:45
(UTC+01:00)

Vanguard 1 Rocket - Pass Details

Date: 14 December 2021
Orbit: 651 x 4224 km, 34.3° (Epoch: 21 January)

Event Time Altitude Azimuth Distance (km) Brightness Sun altitude
Rises 09:45:10 0° 268° (W) 6,492 11.3 6.2°
Reaches altitude 10° 09:52:42 10° 247° (WSW) 6,206 11.4 7.3°
Maximum altitude 10:01:10 14° 222° (SW) 6,472 11.8 8.4°
Drops below altitude 10° 10:11:02 10° 198° (SSW) 7,280 12.4 9.7°
Sets 10:22:15 0° 178° (S) 8,451 13.2 11.2°
